Oakland, CA

12:57 AM PDT on June 20, 2018 (GMT -0700)
Metro Oakland International

Weather History for KOAK - October, 2017

Change the Weather History Date:

Sunday, October 22, 2017

  Actual Average Record
Temperature  
Mean Temperature 60 °F 60 °F  
Max Temperature 72 °F 69 °F 84 °F (2011)
Min Temperature 47 °F 51 °F 40 °F (1949)
Degree Days  
Heating Degree Days 5 6  
Month to date heating degree days 90 93  
Since 1 July heating degree days 163 293  
Cooling Degree Days 0 0  
Month to date cooling degree days 1 12  
Year to date cooling degree days 291 137  
Growing Degree Days 8 (Base 50)    
Moisture  
Dew Point 53 °F    
Average Humidity 79    
Maximum Humidity 100    
Minimum Humidity 57    
Precipitation  
Precipitation 0.00 in 0.03 in 0.45 in (1973)
Month to date precipitation 0.13 0.65  
Year to date precipitation 20.25 14.15  
Sea Level Pressure  
Sea Level Pressure 30.31 in    
Wind  
Wind Speed 5 mph (NW)    
Max Wind Speed 14 mph    
Max Gust Speed 17 mph    
Visibility 10 miles    
Events Fog    
T = Trace of Precipitation, MM = Missing Value Source: NWS Daily Summary

Daily Weather History Graph

Daily Weather History Graph

Search for Another Location

Airport or City:

Astronomy

Oct. 22, 2017 Rise Set
Actual Time 7:24 AM PDT 6:21 PM PDT
Civil Twilight 6:57 AM PDT 6:48 PM PDT
Nautical Twilight 6:27 AM PDT 7:18 PM PDT
Astronomical Twilight 5:56 AM PDT 7:49 PM PDT
Moon 10:01 AM PDT (10/22) 8:35 PM PDT (10/22)
Length of Visible Light 11h 50m
Length of Day
10h 57m
Waxing Crescent, 9% of the Moon is Illuminated
Oct 22
Waxing Crescent
Oct 27
First Quarter
Nov 3
Full
Nov 10
Last Quarter
Nov 18
New

Hourly Weather History & Observations

Time (PDT) Temp. Dew Point Humidity Pressure Visibility Wind Dir Wind Speed Gust Speed Precip Events Conditions
12:53 AM 51.1 °F 50.0 °F 96% 30.32 in 10.0 mi ENE 4.6 mph - N/A   Clear
1:53 AM 52.0 °F 51.1 °F 97% 30.33 in 10.0 mi East 3.5 mph - N/A   Clear
2:53 AM 51.1 °F 51.1 °F 100% 30.34 in 10.0 mi Calm Calm - N/A   Clear
3:53 AM 50.0 °F 50.0 °F 100% 30.33 in 10.0 mi Calm Calm - N/A Fog Shallow Fog
4:53 AM 48.0 °F 48.0 °F 100% 30.33 in 10.0 mi ENE 3.5 mph - N/A   Clear
5:53 AM 50.0 °F 50.0 °F 100% 30.33 in 10.0 mi NE 3.5 mph - N/A   Clear
6:53 AM 48.9 °F 48.9 °F 100% 30.34 in 10.0 mi NNE 4.6 mph - N/A   Clear
7:32 AM 48.9 °F 48.9 °F 100% 30.34 in 10.0 mi Calm Calm - N/A Fog Shallow Fog
7:53 AM 46.9 °F 46.9 °F 100% 30.35 in 10.0 mi East 3.5 mph - N/A Fog Shallow Fog
8:53 AM 57.0 °F 55.9 °F 96% 30.37 in 10.0 mi Calm Calm - N/A   Partly Cloudy
9:53 AM 59.0 °F 57.0 °F 93% 30.38 in 10.0 mi West 4.6 mph - N/A   Partly Cloudy
10:53 AM 61.0 °F 57.0 °F 87% 30.37 in 10.0 mi West 8.1 mph - N/A   Partly Cloudy
11:53 AM 64.9 °F 55.0 °F 70% 30.36 in 10.0 mi West 11.5 mph - N/A   Clear
12:53 PM 66.9 °F 55.0 °F 66% 30.34 in 10.0 mi West 11.5 mph - N/A   Clear
1:53 PM 69.1 °F 54.0 °F 58% 30.32 in 10.0 mi WNW 11.5 mph - N/A   Clear
2:53 PM 70.0 °F 54.0 °F 57% 30.30 in 10.0 mi West 12.7 mph - N/A   Clear
3:53 PM 70.0 °F 54.0 °F 57% 30.27 in 10.0 mi WNW 11.5 mph - N/A   Clear
4:53 PM 69.1 °F 55.9 °F 63% 30.27 in 10.0 mi West 9.2 mph - N/A   Clear
5:53 PM 64.9 °F 59.0 °F 81% 30.26 in 10.0 mi West 6.9 mph - N/A   Clear
6:53 PM 63.0 °F 57.0 °F 81% 30.25 in 10.0 mi WNW 5.8 mph - N/A   Clear
7:53 PM 62.1 °F 55.9 °F 80% 30.26 in 10.0 mi NNW 3.5 mph - N/A   Clear
8:53 PM 62.1 °F 55.9 °F 80% 30.27 in 10.0 mi Calm Calm - N/A   Clear
9:53 PM 55.9 °F 53.1 °F 90% 30.27 in 10.0 mi Calm Calm - N/A   Clear
10:53 PM 55.9 °F 53.1 °F 90% 30.28 in 10.0 mi Calm Calm - N/A   Clear
11:53 PM 57.0 °F 53.1 °F 87% 30.27 in 10.0 mi NE 3.5 mph - N/A   Clear